Terug naar catalogus

LUCH (OLYMP) DEB

ActiefMEO
NORAD 67745·DEBRIS·🇷🇺 Russia

Gelanceerd Sep 27, 2014 vanaf Baikonur Cosmodrome

Loading…

Volgende Passages (komende 24 uur)

TLE

VersSource: Space-Track

Epoch: Sep 10, 2026, 08:16 UTC

1 67745U 14058D   26253.34510707 -.00000281  00000-0  00000-0 0  9994
2 67745   2.7805  88.8120 1731528  59.0099 317.4656  0.98106339  2181

Volg LUCH (OLYMP) DEB in realtime met AllMySat

Download on the App Store